Time,TemperatureF,DewpointF,PressureIn,WindDirection,WindDirectionDegrees,WindSpeedMPH,WindSpeedGustMPH,Humidity,HourlyPrecipIn,Conditions,Clouds,dailyrainin,SolarRadiationWatts/m^2,SoftwareType,DateUTC
2013-04-18 00:02:00,41.1,40.0,29.74,North,350,13.8,13.8,96,0.03,-RA,,0.33,0.0,WeatherDisplay:10.37,2013-04-18 05:02:00,
2013-04-18 00:07:00,41.1,40.0,29.74,NNW,348,18.0,18.0,96,0.03,-RA,,0.33,0.0,WeatherDisplay:10.37,2013-04-18 05:07:00,
2013-04-18 00:12:00,41.0,39.7,29.74,NNE,12,16.1,16.1,95,0.03,-RA,,0.33,0.0,WeatherDisplay:10.37,2013-04-18 05:12:00,
2013-04-18 00:17:00,41.0,39.7,29.73,North,355,24.2,24.2,95,0.03,-RA,,0.33,0.0,WeatherDisplay:10.37,2013-04-18 05:17:00,
2013-04-18 00:22:00,41.0,39.7,29.74,NNW,342,16.1,16.1,95,0.03,-RA,,0.33,0.0,WeatherDisplay:10.37,2013-04-18 05:22:00,
2013-04-18 00:27:00,40.9,39.6,29.73,NNE,29,16.1,16.1,95,0.02,-RA,,0.33,0.0,WeatherDisplay:10.37,2013-04-18 05:27:00,
2013-04-18 00:32:00,40.9,39.6,29.73,NW,323,13.8,13.8,95,0.02,-RA,,0.33,0.0,WeatherDisplay:10.37,2013-04-18 05:32:00,
2013-04-18 00:37:00,40.9,39.6,29.73,NNW,346,13.8,13.8,95,0.01,-RA,,0.33,0.0,WeatherDisplay:10.37,2013-04-18 05:37:00,
2013-04-18 00:42:00,40.8,39.5,29.74,North,349,15.0,15.0,95,0.00,-RA,,0.33,0.0,WeatherDisplay:10.37,2013-04-18 05:42:00,
2013-04-18 00:47:00,40.7,39.4,29.73,North,349,16.1,16.1,95,0.00,-RA,,0.33,0.0,WeatherDisplay:10.37,2013-04-18 05:47:00,
2013-04-18 00:52:00,40.7,39.4,29.74,North,360,15.0,15.0,95,0.00,-RA,,0.33,0.0,WeatherDisplay:10.37,2013-04-18 05:52:00,
2013-04-18 00:57:00,40.6,39.0,29.73,WNW,301,10.0,10.0,94,0.00,-RA,,0.33,0.0,WeatherDisplay:10.37,2013-04-18 05:57:00,
2013-04-18 01:02:00,40.6,39.0,29.73,NNW,338,16.1,16.1,94,0.00,RA,,0.00,0.0,WeatherDisplay:10.37,2013-04-18 06:02:00,
2013-04-18 01:07:00,40.5,39.2,29.73,North,360,12.7,12.7,95,0.00,OVC,,0.00,0.0,WeatherDisplay:10.37,2013-04-18 06:07:00,
2013-04-18 01:12:00,40.4,39.1,29.75,NNW,345,15.0,15.0,95,0.00,OVC,,0.00,0.0,WeatherDisplay:10.37,2013-04-18 06:12:00,
2013-04-18 01:17:00,40.2,38.9,29.75,North,5,19.6,19.6,95,0.00,OVC,,0.00,0.0,WeatherDisplay:10.37,2013-04-18 06:17:00,
2013-04-18 01:22:00,40.0,38.7,29.75,WNW,300,20.7,20.7,95,0.01,RA,,0.01,0.0,WeatherDisplay:10.37,2013-04-18 06:22:00,
2013-04-18 01:27:00,39.9,38.6,29.74,NNW,333,17.3,17.3,95,0.01,OVC,,0.01,0.0,WeatherDisplay:10.37,2013-04-18 06:27:00,
2013-04-18 01:32:00,39.8,38.5,29.74,NNW,342,21.9,21.9,95,0.01,OVC,,0.01,0.0,WeatherDisplay:10.37,2013-04-18 06:32:00,
2013-04-18 01:37:00,39.6,38.3,29.74,NW,324,19.6,19.6,95,0.02,RA,,0.02,0.0,WeatherDisplay:10.37,2013-04-18 06:37:00,
2013-04-18 01:42:00,39.5,38.5,29.74,NNW,338,18.4,18.4,96,0.02,OVC,,0.02,0.0,WeatherDisplay:10.37,2013-04-18 06:42:00,
2013-04-18 01:47:00,39.3,38.3,29.74,NW,317,16.1,16.1,96,0.02,OVC,,0.02,0.0,WeatherDisplay:10.37,2013-04-18 06:47:00,
2013-04-18 01:52:00,39.3,38.3,29.74,NNW,331,19.6,19.6,96,0.02,OVC,,0.02,0.0,WeatherDisplay:10.37,2013-04-18 06:52:00,
2013-04-18 01:57:00,39.2,38.2,29.74,North,5,19.6,19.6,96,0.03,RA,,0.03,0.0,WeatherDisplay:10.37,2013-04-18 06:57:00,
2013-04-18 02:02:00,39.1,38.1,29.74,NNE,15,19.6,19.6,96,0.03,-RA,,0.03,0.0,WeatherDisplay:10.37,2013-04-18 07:02:00,
2013-04-18 02:07:00,39.1,38.1,29.75,NNW,348,15.0,15.0,96,0.03,-RA,,0.03,0.0,WeatherDisplay:10.37,2013-04-18 07:07:00,
2013-04-18 02:12:00,39.0,38.0,29.75,NW,311,20.7,20.7,96,0.03,-RA,,0.03,0.0,WeatherDisplay:10.37,2013-04-18 07:12:00,
2013-04-18 02:17:00,39.0,38.0,29.75,NNW,331,20.7,20.7,96,0.03,-RA,,0.03,0.0,WeatherDisplay:10.37,2013-04-18 07:17:00,
2013-04-18 02:22:00,39.0,38.0,29.75,NNW,344,21.9,21.9,96,0.02,-RA,,0.03,0.0,WeatherDisplay:10.37,2013-04-18 07:22:00,
2013-04-18 02:27:00,39.0,38.0,29.75,North,5,17.3,17.3,96,0.02,-RA,,0.03,0.0,WeatherDisplay:10.37,2013-04-18 07:27:00,
2013-04-18 02:32:00,38.9,37.9,29.76,NW,311,13.8,13.8,96,0.02,-RA,,0.03,0.0,WeatherDisplay:10.37,2013-04-18 07:32:00,
2013-04-18 02:37:00,38.9,37.9,29.75,NW,326,24.2,24.2,96,0.01,-RA,,0.03,0.0,WeatherDisplay:10.37,2013-04-18 07:37:00,
2013-04-18 02:42:00,38.8,37.5,29.75,NNW,338,17.3,17.3,95,0.01,-RA,,0.03,0.0,WeatherDisplay:10.37,2013-04-18 07:42:00,
2013-04-18 02:47:00,38.8,37.8,29.75,NNW,346,20.7,20.7,96,0.01,-RA,,0.03,0.0,WeatherDisplay:10.37,2013-04-18 07:47:00,
2013-04-18 02:52:00,38.8,37.5,29.76,NW,325,21.9,21.9,95,0.01,-RA,,0.03,0.0,WeatherDisplay:10.37,2013-04-18 07:52:00,
2013-04-18 02:57:00,38.9,37.6,29.76,NW,311,15.0,15.0,95,0.00,-RA,,0.03,0.0,WeatherDisplay:10.37,2013-04-18 07:57:00,
2013-04-18 03:02:00,38.8,37.8,29.76,NW,311,10.4,10.4,96,0.00,-RA,,0.03,0.0,WeatherDisplay:10.37,2013-04-18 08:02:00,
2013-04-18 03:07:00,38.7,37.7,29.76,WNW,299,19.6,19.6,96,0.01,-RA,,0.04,0.0,WeatherDisplay:10.37,2013-04-18 08:07:00,
2013-04-18 03:12:00,38.5,37.5,29.77,NW,317,23.0,23.0,96,0.01,-RA,,0.04,0.0,WeatherDisplay:10.37,2013-04-18 08:12:00,
2013-04-18 03:17:00,38.3,37.3,29.76,NW,315,20.0,20.0,96,0.01,-RA,,0.04,0.0,WeatherDisplay:10.37,2013-04-18 08:17:00,
2013-04-18 03:22:00,38.2,37.2,29.77,NW,310,20.7,20.7,96,0.01,-RA,,0.04,0.0,WeatherDisplay:10.37,2013-04-18 08:22:00,
2013-04-18 03:27:00,38.1,37.1,29.77,NW,312,11.5,11.5,96,0.01,-RA,,0.04,0.0,WeatherDisplay:10.37,2013-04-18 08:27:00,
2013-04-18 03:32:00,38.0,37.0,29.77,NNW,328,26.5,26.5,96,0.01,-RA,,0.04,0.0,WeatherDisplay:10.37,2013-04-18 08:32:00,
2013-04-18 03:37:00,37.8,36.8,29.77,WNW,301,26.5,26.5,96,0.01,-RA,,0.04,0.0,WeatherDisplay:10.37,2013-04-18 08:37:00,
2013-04-18 03:42:00,37.7,36.7,29.76,NW,317,19.6,19.6,96,0.01,-RA,,0.04,0.0,WeatherDisplay:10.37,2013-04-18 08:42:00,
2013-04-18 03:47:00,37.5,36.5,29.77,NNW,345,16.1,16.1,96,0.01,-RA,,0.04,0.0,WeatherDisplay:10.37,2013-04-18 08:47:00,
2013-04-18 03:52:00,37.3,36.0,29.78,NW,305,21.9,21.9,95,0.02,-RA,,0.05,0.0,WeatherDisplay:10.37,2013-04-18 08:52:00,
2013-04-18 03:57:00,37.3,36.3,29.78,NNW,336,19.6,19.6,96,0.02,-RA,,0.05,0.0,WeatherDisplay:10.37,2013-04-18 08:57:00,
2013-04-18 04:02:00,37.2,36.2,29.78,NW,313,17.3,17.3,96,0.02,-RA,,0.05,0.0,WeatherDisplay:10.37,2013-04-18 09:02:00,
2013-04-18 04:07:00,37.1,36.1,29.77,NNW,332,17.3,17.3,96,0.01,-RA,,0.05,0.0,WeatherDisplay:10.37,2013-04-18 09:07:00,
2013-04-18 04:12:00,36.9,35.6,29.77,WNW,285,19.6,19.6,95,0.01,-RA,,0.05,0.0,WeatherDisplay:10.37,2013-04-18 09:12:00,
2013-04-18 04:17:00,36.8,35.5,29.77,WNW,300,19.6,19.6,95,0.01,-RA,,0.05,0.0,WeatherDisplay:10.37,2013-04-18 09:17:00,
2013-04-18 04:22:00,36.7,35.4,29.77,NW,311,19.6,19.6,95,0.01,-RA,,0.05,0.0,WeatherDisplay:10.37,2013-04-18 09:22:00,
2013-04-18 04:27:00,36.5,35.2,29.77,NW,315,17.3,17.3,95,0.01,-RA,,0.05,0.0,WeatherDisplay:10.37,2013-04-18 09:27:00,
2013-04-18 04:32:00,36.4,35.1,29.77,NNW,338,21.9,21.9,95,0.01,-RA,,0.05,0.0,WeatherDisplay:10.37,2013-04-18 09:32:00,
2013-04-18 04:37:00,36.2,34.9,29.76,North,351,20.7,20.7,95,0.01,-RA,,0.05,0.0,WeatherDisplay:10.37,2013-04-18 09:37:00,
2013-04-18 04:42:00,35.9,34.3,29.77,NW,323,20.7,20.7,94,0.01,-RA,,0.05,0.0,WeatherDisplay:10.37,2013-04-18 09:42:00,
2013-04-18 04:47:00,35.9,34.3,29.78,North,355,20.7,20.7,94,0.01,-RA,,0.05,0.0,WeatherDisplay:10.37,2013-04-18 09:47:00,
2013-04-18 04:52:00,35.9,34.3,29.79,NNW,342,19.6,19.6,94,0.00,-RA,,0.05,0.0,WeatherDisplay:10.37,2013-04-18 09:52:00,
2013-04-18 04:57:00,35.8,34.2,29.80,North,360,26.5,26.5,94,0.00,-RA,,0.05,0.0,WeatherDisplay:10.37,2013-04-18 09:57:00,
2013-04-18 05:02:00,35.8,34.0,29.81,NW,321,19.6,19.6,93,0.00,-RA,,0.05,0.0,WeatherDisplay:10.37,2013-04-18 10:02:00,
2013-04-18 05:07:00,35.8,34.0,29.81,NW,304,18.4,18.4,93,0.00,-RA,,0.05,0.0,WeatherDisplay:10.37,2013-04-18 10:07:00,
2013-04-18 05:12:00,35.8,34.0,29.81,NW,306,21.0,21.0,93,0.00,-DZ,,0.05,0.0,WeatherDisplay:10.37,2013-04-18 10:12:00,
2013-04-18 05:17:00,35.8,34.0,29.80,NW,307,26.5,26.5,93,0.00,-DZ,,0.05,0.0,WeatherDisplay:10.37,2013-04-18 10:17:00,
2013-04-18 05:22:00,35.7,33.9,29.82,WNW,293,24.2,24.2,93,0.00,-DZ,,0.05,0.0,WeatherDisplay:10.37,2013-04-18 10:22:00,
2013-04-18 05:27:00,35.7,33.6,29.83,NW,315,19.6,19.6,92,0.00,-DZ,,0.05,0.0,WeatherDisplay:10.37,2013-04-18 10:27:00,
2013-04-18 05:32:00,35.7,33.6,29.83,NW,311,22.0,22.0,92,0.00,-DZ,,0.05,0.0,WeatherDisplay:10.37,2013-04-18 10:32:00,
2013-04-18 05:37:00,35.6,33.5,29.83,NNW,338,17.3,17.3,92,0.00,-DZ,,0.05,0.0,WeatherDisplay:10.37,2013-04-18 10:37:00,
2013-04-18 05:42:00,35.5,33.7,29.83,NW,315,17.3,17.3,93,0.00,-DZ,,0.05,0.0,WeatherDisplay:10.37,2013-04-18 10:42:00,
2013-04-18 05:47:00,35.4,33.6,29.84,NNW,341,25.3,25.3,93,0.00,-DZ,,0.05,0.0,WeatherDisplay:10.37,2013-04-18 10:47:00,
2013-04-18 05:52:00,35.4,33.6,29.85,NNW,327,18.0,18.0,93,0.00,-DZ,,0.05,0.0,WeatherDisplay:10.37,2013-04-18 10:52:00,
2013-04-18 05:57:00,35.2,33.4,29.85,NW,315,19.6,19.6,93,0.00,-DZ,,0.05,0.0,WeatherDisplay:10.37,2013-04-18 10:57:00,
2013-04-18 06:02:00,35.1,33.3,29.85,North,355,15.0,15.0,93,0.00,-DZ,,0.05,0.0,WeatherDisplay:10.37,2013-04-18 11:02:00,
2013-04-18 06:07:00,35.1,33.5,29.85,NNW,334,23.0,23.0,94,0.00,-DZ,,0.05,0.0,WeatherDisplay:10.37,2013-04-18 11:07:00,
2013-04-18 06:12:00,35.0,33.4,29.84,NW,304,18.4,18.4,94,0.00,-DZ,,0.05,0.0,WeatherDisplay:10.37,2013-04-18 11:12:00,
2013-04-18 06:17:00,34.9,33.3,29.84,NNW,331,19.6,19.6,94,0.00,-DZ,,0.05,0.0,WeatherDisplay:10.37,2013-04-18 11:17:00,
2013-04-18 06:22:00,34.8,33.2,29.84,WNW,295,16.1,16.1,94,0.00,-DZ,,0.05,0.0,WeatherDisplay:10.37,2013-04-18 11:22:00,
2013-04-18 06:27:00,34.6,33.1,29.83,NNW,329,20.7,20.7,94,0.00,-DZ,,0.05,0.0,WeatherDisplay:10.37,2013-04-18 11:27:00,
2013-04-18 06:32:00,34.5,33.0,29.84,NW,305,20.7,20.7,94,0.00,-DZ,,0.05,0.0,WeatherDisplay:10.37,2013-04-18 11:32:00,
2013-04-18 06:37:00,34.3,32.8,29.84,North,355,25.3,25.3,94,0.00,-DZ,,0.05,0.0,WeatherDisplay:10.37,2013-04-18 11:37:00,
2013-04-18 06:42:00,34.2,32.7,29.84,WNW,284,20.7,20.7,94,0.00,-DZ,,0.05,0.0,WeatherDisplay:10.37,2013-04-18 11:42:00,
2013-04-18 06:47:00,34.1,32.6,29.84,NNW,348,21.9,21.9,94,0.00,-DZ,,0.05,0.0,WeatherDisplay:10.37,2013-04-18 11:47:00,
2013-04-18 06:52:00,34.0,32.2,29.84,WNW,302,21.9,21.9,93,0.00,-DZ,,0.05,0.0,WeatherDisplay:10.37,2013-04-18 11:52:00,
2013-04-18 06:57:00,33.9,32.1,29.85,North,360,18.4,18.4,93,0.00,-DZ,,0.05,0.0,WeatherDisplay:10.37,2013-04-18 11:57:00,
2013-04-18 07:02:00,33.9,32.1,29.85,NNW,327,21.9,21.9,93,0.00,-DZ,,0.05,0.0,WeatherDisplay:10.37,2013-04-18 12:02:00,
2013-04-18 07:07:00,33.9,32.1,29.86,WNW,300,13.8,13.8,93,0.00,-DZ,,0.05,0.0,WeatherDisplay:10.37,2013-04-18 12:07:00,
2013-04-18 07:12:00,34.0,32.2,29.87,NNW,329,26.0,26.0,93,0.00,-DZ,,0.05,7.0,WeatherDisplay:10.37,2013-04-18 12:12:00,
2013-04-18 07:17:00,33.7,31.6,29.87,NW,325,20.7,20.7,92,0.00,-DZ,,0.05,11.0,WeatherDisplay:10.37,2013-04-18 12:17:00,
2013-04-18 07:22:00,33.6,31.5,29.88,North,5,25.3,25.3,92,0.00,-DZ,,0.05,16.0,WeatherDisplay:10.37,2013-04-18 12:22:00,
2013-04-18 07:27:00,33.6,31.3,29.89,WNW,302,23.0,23.0,91,0.00,-DZ,,0.05,14.0,WeatherDisplay:10.37,2013-04-18 12:27:00,
2013-04-18 07:32:00,33.6,31.5,29.89,NW,308,17.0,17.0,92,0.00,-DZ,,0.05,11.0,WeatherDisplay:10.37,2013-04-18 12:32:00,
2013-04-18 07:37:00,33.5,31.4,29.89,West,261,23.0,23.0,92,0.00,-DZ,,0.05,16.0,WeatherDisplay:10.37,2013-04-18 12:37:00,
2013-04-18 07:42:00,33.5,30.9,29.90,NW,321,24.2,24.2,90,0.00,OVC,,0.05,28.0,WeatherDisplay:10.37,2013-04-18 12:42:00,
2013-04-18 07:47:00,33.5,31.2,29.90,NW,310,25.3,25.3,91,0.00,OVC,,0.05,44.0,WeatherDisplay:10.37,2013-04-18 12:47:00,
2013-04-18 07:52:00,33.6,31.3,29.90,NNW,331,20.7,20.7,91,0.00,OVC,,0.05,42.0,WeatherDisplay:10.37,2013-04-18 12:52:00,
2013-04-18 07:57:00,33.7,31.4,29.91,WNW,289,20.7,20.7,91,0.00,OVC,,0.05,44.0,WeatherDisplay:10.37,2013-04-18 12:57:00,
2013-04-18 08:02:00,33.7,31.4,29.91,WNW,296,21.9,21.9,91,0.00,OVC,,0.05,47.0,WeatherDisplay:10.37,2013-04-18 13:02:00,
2013-04-18 08:07:00,33.7,31.4,29.91,NW,322,23.0,23.0,91,0.00,OVC,,0.05,74.0,WeatherDisplay:10.37,2013-04-18 13:07:00,
2013-04-18 08:12:00,33.8,31.5,29.90,North,349,18.4,18.4,91,0.00,OVC,,0.05,58.0,WeatherDisplay:10.37,2013-04-18 13:12:00,
2013-04-18 08:17:00,33.9,31.6,29.92,WNW,303,15.0,15.0,91,0.00,OVC,,0.05,74.0,WeatherDisplay:10.37,2013-04-18 13:17:00,
2013-04-18 08:22:00,34.0,31.4,29.91,NW,314,18.0,18.0,90,0.00,OVC,,0.05,76.0,WeatherDisplay:10.37,2013-04-18 13:22:00,
2013-04-18 08:27:00,34.1,31.2,29.92,WNW,296,13.8,13.8,89,0.00,OVC,,0.05,88.0,WeatherDisplay:10.37,2013-04-18 13:27:00,
2013-04-18 08:32:00,34.2,31.6,29.92,NNW,338,23.0,23.0,90,0.00,OVC,,0.05,81.0,WeatherDisplay:10.37,2013-04-18 13:32:00,
2013-04-18 08:37:00,34.1,31.5,29.92,WNW,301,19.6,19.6,90,0.00,OVC,,0.05,90.0,WeatherDisplay:10.37,2013-04-18 13:37:00,
2013-04-18 08:42:00,34.1,31.5,29.92,North,349,17.3,17.3,90,0.00,OVC,,0.05,63.0,WeatherDisplay:10.37,2013-04-18 13:42:00,
2013-04-18 08:47:00,34.1,31.7,29.93,NW,324,17.3,17.3,91,0.00,OVC,,0.05,79.0,WeatherDisplay:10.37,2013-04-18 13:47:00,
2013-04-18 08:52:00,34.0,31.6,29.93,WNW,288,16.1,16.1,91,0.00,OVC,,0.05,65.0,WeatherDisplay:10.37,2013-04-18 13:52:00,
2013-04-18 08:57:00,34.0,31.4,29.93,NNW,333,22.0,22.0,90,0.00,OVC,,0.05,60.0,WeatherDisplay:10.37,2013-04-18 13:57:00,
2013-04-18 09:02:00,34.0,31.4,29.93,NW,308,19.6,19.6,90,0.00,OVC,,0.05,70.0,WeatherDisplay:10.37,2013-04-18 14:02:00,
2013-04-18 09:07:00,34.1,31.2,29.94,NE,36,14.0,14.0,89,0.00,OVC,,0.05,91.0,WeatherDisplay:10.37,2013-04-18 14:07:00,
2013-04-18 09:12:00,34.1,31.2,29.94,NW,325,17.3,17.3,89,0.00,-SN,,0.05,105.0,WeatherDisplay:10.37,2013-04-18 14:12:00,
2013-04-18 09:17:00,34.3,31.4,29.94,NW,320,12.7,12.7,89,0.00,-SN,,0.05,127.0,WeatherDisplay:10.37,2013-04-18 14:17:00,
2013-04-18 09:22:00,34.5,31.3,29.94,NNW,329,11.5,11.5,88,0.00,-SN,,0.05,111.0,WeatherDisplay:10.37,2013-04-18 14:22:00,
2013-04-18 09:27:00,34.6,31.1,29.94,NW,312,19.6,19.6,87,0.00,-SN,,0.05,137.0,WeatherDisplay:10.37,2013-04-18 14:27:00,
2013-04-18 09:32:00,34.6,31.1,29.94,WNW,285,21.9,21.9,87,0.00,-SN,,0.05,165.0,WeatherDisplay:10.37,2013-04-18 14:32:00,
2013-04-18 09:37:00,34.8,31.3,29.95,North,5,16.1,16.1,87,0.00,-SN,,0.05,163.0,WeatherDisplay:10.37,2013-04-18 14:37:00,
2013-04-18 09:42:00,34.9,31.1,29.95,WNW,303,17.3,17.3,86,0.00,-SN,,0.05,192.0,WeatherDisplay:10.37,2013-04-18 14:42:00,
2013-04-18 09:47:00,35.1,31.0,29.95,WNW,300,17.3,17.3,85,0.00,-SN,,0.05,193.0,WeatherDisplay:10.37,2013-04-18 14:47:00,
2013-04-18 09:52:00,35.2,31.1,29.95,West,279,19.6,19.6,85,0.00,-SN,,0.05,186.0,WeatherDisplay:10.37,2013-04-18 14:52:00,
2013-04-18 09:57:00,35.3,30.9,29.95,NW,312,23.0,23.0,84,0.00,-SN,,0.05,172.0,WeatherDisplay:10.37,2013-04-18 14:57:00,
2013-04-18 10:02:00,35.3,30.9,29.96,NW,321,19.6,19.6,84,0.00,-SN,,0.05,144.0,WeatherDisplay:10.37,2013-04-18 15:02:00,
2013-04-18 10:07:00,35.3,30.9,29.96,WNW,288,16.1,16.1,84,0.00,-SN,,0.05,142.0,WeatherDisplay:10.37,2013-04-18 15:07:00,
2013-04-18 10:12:00,35.4,31.0,29.97,West,264,20.7,20.7,84,0.00,OVC,,0.05,163.0,WeatherDisplay:10.37,2013-04-18 15:12:00,
2013-04-18 10:17:00,35.5,30.8,29.97,NNW,337,19.6,19.6,83,0.00,OVC,,0.05,255.0,WeatherDisplay:10.37,2013-04-18 15:17:00,
2013-04-18 10:22:00,35.7,31.3,29.97,NNW,328,16.1,16.1,84,0.00,OVC,,0.05,211.0,WeatherDisplay:10.37,2013-04-18 15:22:00,
2013-04-18 10:27:00,35.8,30.8,29.97,North,355,20.7,20.7,82,0.00,OVC,,0.05,325.0,WeatherDisplay:10.37,2013-04-18 15:27:00,
2013-04-18 10:33:00,36.2,31.2,29.98,NW,320,16.1,16.1,82,0.00,OVC,,0.05,380.0,WeatherDisplay:10.37,2013-04-18 15:33:00,
2013-04-18 10:38:00,36.5,31.2,29.98,NNW,339,18.0,18.0,81,0.00,OVC,,0.05,322.0,WeatherDisplay:10.37,2013-04-18 15:38:00,
2013-04-18 10:43:00,36.6,31.3,29.98,NNW,337,19.6,19.6,81,0.00,OVC,,0.05,274.0,WeatherDisplay:10.37,2013-04-18 15:43:00,
2013-04-18 10:48:00,36.8,31.5,29.98,NW,308,18.4,18.4,81,0.00,OVC,,0.05,202.0,WeatherDisplay:10.37,2013-04-18 15:48:00,
2013-04-18 10:53:00,36.9,31.6,29.98,WNW,296,19.6,19.6,81,0.00,OVC,,0.05,302.0,WeatherDisplay:10.37,2013-04-18 15:53:00,
2013-04-18 10:58:00,37.2,31.6,29.98,NW,321,18.4,18.4,80,0.00,OVC,,0.05,302.0,WeatherDisplay:10.37,2013-04-18 15:58:00,
2013-04-18 11:03:00,37.2,31.6,29.98,NNW,342,20.7,20.7,80,0.00,OVC,,0.05,243.0,WeatherDisplay:10.37,2013-04-18 16:03:00,
2013-04-18 11:08:00,37.2,31.3,29.98,NNW,340,17.0,17.0,79,0.00,OVC,,0.05,236.0,WeatherDisplay:10.37,2013-04-18 16:08:00,
2013-04-18 11:13:00,37.3,31.4,29.98,WNW,300,18.4,18.4,79,0.00,OVC,,0.05,269.0,WeatherDisplay:10.37,2013-04-18 16:13:00,
2013-04-18 11:18:00,37.6,31.4,29.98,NW,311,24.2,24.2,78,0.00,OVC,,0.05,267.0,WeatherDisplay:10.37,2013-04-18 16:18:00,
2013-04-18 11:23:00,37.5,31.6,29.98,WNW,299,21.9,21.9,79,0.00,OVC,,0.05,316.0,WeatherDisplay:10.37,2013-04-18 16:23:00,
2013-04-18 11:28:00,37.4,31.5,29.99,NW,321,21.9,21.9,79,0.00,OVC,,0.05,287.0,WeatherDisplay:10.37,2013-04-18 16:28:00,
2013-04-18 11:33:00,37.4,30.8,29.99,NW,307,19.6,19.6,77,0.00,OVC,,0.05,381.0,WeatherDisplay:10.37,2013-04-18 16:33:00,
2013-04-18 11:38:00,37.8,31.2,29.99,WNW,288,25.3,25.3,77,0.00,OVC,,0.05,388.0,WeatherDisplay:10.37,2013-04-18 16:38:00,
2013-04-18 11:43:00,38.0,31.4,29.99,WNW,285,15.0,15.0,77,0.00,OVC,,0.05,362.0,WeatherDisplay:10.37,2013-04-18 16:43:00,
2013-04-18 11:48:00,38.1,31.2,29.99,NNW,348,26.5,26.5,76,0.00,OVC,,0.05,290.0,WeatherDisplay:10.37,2013-04-18 16:48:00,
2013-04-18 11:53:00,38.1,31.5,29.98,WNW,285,19.0,19.0,77,0.00,OVC,,0.05,269.0,WeatherDisplay:10.37,2013-04-18 16:53:00,
2013-04-18 11:58:00,38.3,31.4,29.98,NW,325,17.0,17.0,76,0.00,OVC,,0.05,448.0,WeatherDisplay:10.37,2013-04-18 16:58:00,
2013-04-18 12:03:00,38.5,31.3,29.98,NW,306,24.2,24.2,75,0.00,OVC,,0.05,359.0,WeatherDisplay:10.37,2013-04-18 17:03:00,
2013-04-18 12:08:00,38.5,31.3,29.98,WNW,294,20.7,20.7,75,0.00,OVC,,0.05,371.0,WeatherDisplay:10.37,2013-04-18 17:08:00,
2013-04-18 12:13:00,38.7,31.5,29.98,NW,314,23.0,23.0,75,0.00,OVC,,0.05,213.0,WeatherDisplay:10.37,2013-04-18 17:13:00,
2013-04-18 12:18:00,38.6,31.4,29.99,West,274,20.0,20.0,75,0.00,OVC,,0.05,216.0,WeatherDisplay:10.37,2013-04-18 17:18:00,
2013-04-18 12:23:00,38.4,31.2,29.98,WNW,284,26.5,26.5,75,0.00,OVC,,0.05,209.0,WeatherDisplay:10.37,2013-04-18 17:23:00,
2013-04-18 12:28:00,38.3,31.4,29.98,NNW,338,15.0,15.0,76,0.00,OVC,,0.05,269.0,WeatherDisplay:10.37,2013-04-18 17:28:00,
2013-04-18 12:33:00,38.5,31.3,29.98,NNW,343,19.6,19.6,75,0.00,OVC,,0.05,311.0,WeatherDisplay:10.37,2013-04-18 17:33:00,
2013-04-18 12:38:00,38.7,31.1,29.98,WNW,285,15.0,15.0,74,0.00,OVC,,0.05,255.0,WeatherDisplay:10.37,2013-04-18 17:38:00,
2013-04-18 12:43:00,38.7,30.8,29.98,NNW,341,15.0,15.0,73,0.00,OVC,,0.05,330.0,WeatherDisplay:10.37,2013-04-18 17:43:00,
2013-04-18 12:48:00,38.9,31.3,29.98,NW,313,20.7,20.7,74,0.00,OVC,,0.05,202.0,WeatherDisplay:10.37,2013-04-18 17:48:00,
2013-04-18 12:53:00,38.8,31.2,29.98,West,271,17.3,17.3,74,0.00,OVC,,0.05,251.0,WeatherDisplay:10.37,2013-04-18 17:53:00,
2013-04-18 12:58:00,38.7,31.1,29.98,WNW,294,17.3,17.3,74,0.00,OVC,,0.05,383.0,WeatherDisplay:10.37,2013-04-18 17:58:00,
2013-04-18 13:03:00,39.0,31.1,29.99,NNW,338,17.3,17.3,73,0.00,OVC,,0.05,311.0,WeatherDisplay:10.37,2013-04-18 18:03:00,
2013-04-18 13:08:00,39.2,31.3,29.99,North,350,17.0,17.0,73,0.00,OVC,,0.05,424.0,WeatherDisplay:10.37,2013-04-18 18:08:00,
2013-04-18 13:13:00,39.3,30.7,29.99,NW,309,19.6,19.6,71,0.00,OVC,,0.05,438.0,WeatherDisplay:10.37,2013-04-18 18:13:00,
2013-04-18 13:18:00,39.7,31.1,29.99,NW,321,23.0,23.0,71,0.00,OVC,,0.05,315.0,WeatherDisplay:10.37,2013-04-18 18:18:00,
2013-04-18 13:23:00,39.5,31.2,29.99,WNW,300,16.1,16.1,72,0.00,OVC,,0.05,295.0,WeatherDisplay:10.37,2013-04-18 18:23:00,
2013-04-18 13:28:00,39.4,31.1,29.99,NW,317,17.0,17.0,72,0.00,OVC,,0.05,309.0,WeatherDisplay:10.37,2013-04-18 18:28:00,
2013-04-18 13:33:00,39.5,30.9,29.99,West,270,17.3,17.3,71,0.00,OVC,,0.05,193.0,WeatherDisplay:10.37,2013-04-18 18:33:00,
2013-04-18 13:38:00,39.7,31.4,30.00,NW,323,17.3,17.3,72,0.00,OVC,,0.05,315.0,WeatherDisplay:10.37,2013-04-18 18:38:00,
2013-04-18 13:43:00,39.8,31.5,30.00,West,263,20.7,20.7,72,0.00,OVC,,0.05,304.0,WeatherDisplay:10.37,2013-04-18 18:43:00,
2013-04-18 13:48:00,39.7,30.7,30.00,NNW,336,26.5,26.5,70,0.00,OVC,,0.05,294.0,WeatherDisplay:10.37,2013-04-18 18:48:00,
2013-04-18 13:53:00,39.6,31.3,30.00,West,266,21.9,21.9,72,0.00,OVC,,0.05,299.0,WeatherDisplay:10.37,2013-04-18 18:53:00,
2013-04-18 13:58:00,39.8,31.8,30.00,NW,323,20.0,20.0,73,0.00,OVC,,0.05,376.0,WeatherDisplay:10.37,2013-04-18 18:58:00,
2013-04-18 14:03:00,40.1,31.1,30.00,West,263,13.0,13.0,70,0.00,OVC,,0.05,299.0,WeatherDisplay:10.37,2013-04-18 19:03:00,
2013-04-18 14:08:00,40.3,31.6,30.00,WNW,298,20.7,20.7,71,0.00,OVC,,0.05,237.0,WeatherDisplay:10.37,2013-04-18 19:08:00,
2013-04-18 14:13:00,40.2,31.5,30.01,NW,307,19.6,19.6,71,0.00,OVC,,0.05,262.0,WeatherDisplay:10.37,2013-04-18 19:13:00,
2013-04-18 14:18:00,40.0,31.4,30.01,NW,314,24.2,24.2,71,0.00,OVC,,0.05,304.0,WeatherDisplay:10.37,2013-04-18 19:18:00,
2013-04-18 14:23:00,39.8,30.5,30.01,NW,306,17.3,17.3,69,0.00,OVC,,0.05,269.0,WeatherDisplay:10.37,2013-04-18 19:23:00,
2013-04-18 14:28:00,40.0,31.0,30.01,NW,321,19.6,19.6,70,0.00,OVC,,0.05,353.0,WeatherDisplay:10.37,2013-04-18 19:28:00,
2013-04-18 14:33:00,40.2,30.8,30.01,NW,324,12.7,12.7,69,0.00,OVC,,0.05,216.0,WeatherDisplay:10.37,2013-04-18 19:33:00,
2013-04-18 14:38:00,40.0,30.6,30.01,WNW,294,17.3,17.3,69,0.00,OVC,,0.05,229.0,WeatherDisplay:10.37,2013-04-18 19:38:00,
2013-04-18 14:43:00,39.9,30.9,30.01,NNW,340,13.8,13.8,70,0.00,OVC,,0.05,359.0,WeatherDisplay:10.37,2013-04-18 19:43:00,
2013-04-18 14:48:00,40.1,31.1,30.01,West,260,12.7,12.7,70,0.00,OVC,,0.05,202.0,WeatherDisplay:10.37,2013-04-18 19:48:00,
2013-04-18 14:53:00,40.1,30.7,30.01,NW,314,19.6,19.6,69,0.00,OVC,,0.05,155.0,WeatherDisplay:10.37,2013-04-18 19:53:00,
2013-04-18 14:58:00,39.5,30.9,30.02,West,279,20.7,20.7,71,0.00,OVC,,0.05,197.0,WeatherDisplay:10.37,2013-04-18 19:58:00,
2013-04-18 15:03:00,39.1,31.2,30.02,NW,309,17.3,17.3,73,0.00,OVC,,0.05,246.0,WeatherDisplay:10.37,2013-04-18 20:03:00,
2013-04-18 15:08:00,39.0,30.4,30.02,WNW,295,18.4,18.4,71,0.00,OVC,,0.05,299.0,WeatherDisplay:10.37,2013-04-18 20:08:00,
2013-04-18 15:13:00,39.3,31.0,30.02,West,273,16.0,16.0,72,0.00,OVC,,0.05,322.0,WeatherDisplay:10.37,2013-04-18 20:13:00,
2013-04-18 15:18:00,39.4,30.4,30.02,WNW,282,16.1,16.1,70,0.00,OVC,,0.05,199.0,WeatherDisplay:10.37,2013-04-18 20:18:00,
2013-04-18 15:23:00,39.4,30.8,30.02,NW,317,17.3,17.3,71,0.00,OVC,,0.05,132.0,WeatherDisplay:10.37,2013-04-18 20:23:00,
2013-04-18 15:28:00,39.2,30.9,30.03,NW,311,16.1,16.1,72,0.00,OVC,,0.05,137.0,WeatherDisplay:10.37,2013-04-18 20:28:00,
2013-04-18 15:33:00,38.9,30.3,30.03,NW,309,18.4,18.4,71,0.00,OVC,,0.05,276.0,WeatherDisplay:10.37,2013-04-18 20:33:00,
2013-04-18 15:38:00,39.1,30.1,30.03,NW,307,15.0,15.0,70,0.00,OVC,,0.05,364.0,WeatherDisplay:10.37,2013-04-18 20:38:00,
2013-04-18 15:43:00,39.5,30.2,30.03,WNW,292,18.4,18.4,69,0.00,OVC,,0.05,221.0,WeatherDisplay:10.37,2013-04-18 20:43:00,
2013-04-18 15:48:00,39.6,30.6,30.03,West,271,17.3,17.3,70,0.00,OVC,,0.05,174.0,WeatherDisplay:10.37,2013-04-18 20:48:00,
2013-04-18 15:53:00,39.3,30.3,30.03,West,277,17.0,17.0,70,0.00,OVC,,0.05,176.0,WeatherDisplay:10.37,2013-04-18 20:53:00,
2013-04-18 15:58:00,39.0,30.7,30.03,WNW,296,16.0,16.0,72,0.00,OVC,,0.05,174.0,WeatherDisplay:10.37,2013-04-18 20:58:00,
2013-04-18 16:03:00,38.8,30.2,30.03,WNW,300,19.6,19.6,71,0.00,OVC,,0.05,179.0,WeatherDisplay:10.37,2013-04-18 21:03:00,
2013-04-18 16:08:00,38.8,30.2,30.03,WNW,300,19.6,19.6,71,0.00,OVC,,0.05,229.0,WeatherDisplay:10.37,2013-04-18 21:08:00,
2013-04-18 16:13:00,39.0,30.7,30.03,NW,320,9.2,9.2,72,0.00,OVC,,0.05,137.0,WeatherDisplay:10.37,2013-04-18 21:13:00,
2013-04-18 16:18:00,39.1,30.1,30.03,WNW,295,16.1,16.1,70,0.00,OVC,,0.05,135.0,WeatherDisplay:10.37,2013-04-18 21:18:00,
2013-04-18 16:23:00,38.9,30.3,30.03,NW,306,21.9,21.9,71,0.00,OVC,,0.05,125.0,WeatherDisplay:10.37,2013-04-18 21:23:00,
2013-04-18 16:28:00,38.8,30.2,30.03,West,273,23.0,23.0,71,0.00,OVC,,0.05,137.0,WeatherDisplay:10.37,2013-04-18 21:28:00,
2013-04-18 16:33:00,38.8,29.8,30.03,NW,309,18.4,18.4,70,0.00,OVC,,0.05,257.0,WeatherDisplay:10.37,2013-04-18 21:33:00,
2013-04-18 16:38:00,39.1,29.4,30.03,North,360,18.0,18.0,68,0.00,OVC,,0.05,185.0,WeatherDisplay:10.37,2013-04-18 21:38:00,
2013-04-18 16:43:00,39.1,29.4,30.03,NW,325,17.3,17.3,68,0.00,OVC,,0.05,163.0,WeatherDisplay:10.37,2013-04-18 21:43:00,
2013-04-18 16:48:00,39.1,29.8,30.03,WNW,298,18.4,18.4,69,0.00,OVC,,0.05,236.0,WeatherDisplay:10.37,2013-04-18 21:48:00,
2013-04-18 16:53:00,39.2,29.9,30.04,NNW,339,19.0,19.0,69,0.00,OVC,,0.05,204.0,WeatherDisplay:10.37,2013-04-18 21:53:00,
2013-04-18 16:58:00,39.1,29.1,30.04,NW,313,21.9,21.9,67,0.00,OVC,,0.05,151.0,WeatherDisplay:10.37,2013-04-18 21:58:00,
2013-04-18 17:03:00,39.0,29.3,30.04,NNW,331,16.0,16.0,68,0.00,OVC,,0.05,169.0,WeatherDisplay:10.37,2013-04-18 22:03:00,
2013-04-18 17:08:00,39.0,29.7,30.04,WSW,251,12.7,12.7,69,0.00,OVC,,0.05,155.0,WeatherDisplay:10.37,2013-04-18 22:08:00,
2013-04-18 17:13:00,39.0,29.3,30.05,WNW,301,15.0,15.0,68,0.00,OVC,,0.05,113.0,WeatherDisplay:10.37,2013-04-18 22:13:00,
2013-04-18 17:18:00,38.9,29.6,30.05,NW,320,16.0,16.0,69,0.00,OVC,,0.05,130.0,WeatherDisplay:10.37,2013-04-18 22:18:00,
2013-04-18 17:23:00,38.8,29.5,30.05,NW,304,16.0,16.0,69,0.00,OVC,,0.05,90.0,WeatherDisplay:10.37,2013-04-18 22:23:00,
2013-04-18 17:28:00,38.8,29.1,30.05,WNW,301,11.5,11.5,68,0.00,OVC,,0.05,127.0,WeatherDisplay:10.37,2013-04-18 22:28:00,
2013-04-18 17:33:00,38.7,29.0,30.05,WNW,300,12.0,12.0,68,0.00,OVC,,0.05,86.0,WeatherDisplay:10.37,2013-04-18 22:33:00,
2013-04-18 17:38:00,38.6,28.6,30.06,NNW,327,18.4,18.4,67,0.00,OVC,,0.05,128.0,WeatherDisplay:10.37,2013-04-18 22:38:00,
2013-04-18 17:43:00,38.6,27.8,30.06,WNW,302,19.6,19.6,65,0.00,OVC,,0.05,104.0,WeatherDisplay:10.37,2013-04-18 22:43:00,
2013-04-18 17:48:00,38.6,28.6,30.06,West,275,11.5,11.5,67,0.00,OVC,,0.05,76.0,WeatherDisplay:10.37,2013-04-18 22:48:00,
2013-04-18 17:53:00,38.6,28.6,30.06,NW,309,17.3,17.3,67,0.00,OVC,,0.05,113.0,WeatherDisplay:10.37,2013-04-18 22:53:00,
2013-04-18 17:58:00,38.6,28.6,30.06,NW,316,16.1,16.1,67,0.00,OVC,,0.05,79.0,WeatherDisplay:10.37,2013-04-18 22:58:00,
2013-04-18 18:03:00,38.5,28.1,30.06,NW,307,19.6,19.6,66,0.00,OVC,,0.05,93.0,WeatherDisplay:10.37,2013-04-18 23:03:00,
2013-04-18 18:08:00,38.4,28.0,30.06,WNW,291,12.7,12.7,66,0.00,OVC,,0.05,95.0,WeatherDisplay:10.37,2013-04-18 23:08:00,
2013-04-18 18:13:00,38.5,28.5,30.07,West,277,11.5,11.5,67,0.00,OVC,,0.05,74.0,WeatherDisplay:10.37,2013-04-18 23:13:00,
2013-04-18 18:18:00,38.6,28.6,30.06,NW,326,15.0,15.0,67,0.00,OVC,,0.05,72.0,WeatherDisplay:10.37,2013-04-18 23:18:00,
2013-04-18 18:23:00,38.6,28.6,30.07,West,273,12.7,12.7,67,0.00,OVC,,0.05,86.0,WeatherDisplay:10.37,2013-04-18 23:23:00,
2013-04-18 18:28:00,38.6,28.2,30.07,WNW,293,19.6,19.6,66,0.00,OVC,,0.05,84.0,WeatherDisplay:10.37,2013-04-18 23:28:00,
2013-04-18 18:33:00,38.7,28.7,30.07,NNW,331,15.0,15.0,67,0.00,OVC,,0.05,97.0,WeatherDisplay:10.37,2013-04-18 23:33:00,
2013-04-18 18:38:00,38.8,28.8,30.07,West,281,18.4,18.4,67,0.00,OVC,,0.05,77.0,WeatherDisplay:10.37,2013-04-18 23:38:00,
2013-04-18 18:43:00,38.7,28.7,30.07,NW,326,13.8,13.8,67,0.00,OVC,,0.05,70.0,WeatherDisplay:10.37,2013-04-18 23:43:00,
2013-04-18 18:48:00,38.7,28.7,30.07,NW,313,16.1,16.1,67,0.00,OVC,,0.05,81.0,WeatherDisplay:10.37,2013-04-18 23:48:00,
2013-04-18 18:53:00,38.7,28.7,30.07,WNW,287,9.2,9.2,67,0.00,OVC,,0.05,62.0,WeatherDisplay:10.37,2013-04-18 23:53:00,
2013-04-18 18:58:00,38.8,28.8,30.07,NNW,329,18.4,18.4,67,0.00,OVC,,0.05,42.0,WeatherDisplay:10.37,2013-04-18 23:58:00,
2013-04-18 19:03:00,38.7,28.3,30.07,NW,315,16.1,16.1,66,0.00,BKN,,0.05,44.0,WeatherDisplay:10.37,2013-04-19 00:03:00,
2013-04-18 19:08:00,38.7,28.3,30.08,NW,311,11.5,11.5,66,0.00,BKN,,0.05,42.0,WeatherDisplay:10.37,2013-04-19 00:08:00,
2013-04-18 19:13:00,38.7,28.3,30.08,NW,311,10.4,10.4,66,0.00,BKN,,0.05,28.0,WeatherDisplay:10.37,2013-04-19 00:13:00,
2013-04-18 19:18:00,38.7,28.7,30.08,NW,312,11.5,11.5,67,0.00,BKN,,0.05,23.0,WeatherDisplay:10.37,2013-04-19 00:18:00,
2013-04-18 19:23:00,38.7,28.7,30.08,NW,319,10.4,10.4,67,0.00,BKN,,0.05,14.0,WeatherDisplay:10.37,2013-04-19 00:23:00,
2013-04-18 19:28:00,38.6,28.9,30.08,WNW,290,6.0,6.0,68,0.00,BKN,,0.05,11.0,WeatherDisplay:10.37,2013-04-19 00:28:00,
2013-04-18 19:33:00,38.6,28.9,30.08,NW,314,6.9,6.9,68,0.00,BKN,,0.05,7.0,WeatherDisplay:10.37,2013-04-19 00:33:00,
2013-04-18 19:38:00,38.4,28.4,30.08,NW,307,13.8,13.8,67,0.00,BKN,,0.05,9.0,WeatherDisplay:10.37,2013-04-19 00:38:00,
2013-04-18 19:43:00,38.4,28.4,30.08,WNW,300,10.4,10.4,67,0.00,BKN,,0.05,9.0,WeatherDisplay:10.37,2013-04-19 00:43:00,
2013-04-18 19:48:00,38.3,28.3,30.09,NW,313,11.5,11.5,67,0.00,BKN,,0.05,9.0,WeatherDisplay:10.37,2013-04-19 00:48:00,
2013-04-18 19:53:00,38.2,28.2,30.09,WNW,298,10.4,10.4,67,0.00,BKN,,0.05,7.0,WeatherDisplay:10.37,2013-04-19 00:53:00,
2013-04-18 19:58:00,38.2,27.5,30.09,NNW,340,11.5,11.5,65,0.00,BKN,,0.05,5.0,WeatherDisplay:10.37,2013-04-19 00:58:00,
2013-04-18 20:03:00,38.1,27.4,30.09,WNW,288,16.1,16.1,65,0.00,OVC,,0.05,0.0,WeatherDisplay:10.37,2013-04-19 01:03:00,
2013-04-18 20:08:00,38.0,27.6,30.09,WNW,285,9.2,9.2,66,0.00,OVC,,0.05,0.0,WeatherDisplay:10.37,2013-04-19 01:08:00,
2013-04-18 20:13:00,38.0,27.6,30.10,WNW,291,11.5,11.5,66,0.00,OVC,,0.05,0.0,WeatherDisplay:10.37,2013-04-19 01:13:00,
2013-04-18 20:18:00,37.9,27.9,30.10,NW,323,9.2,9.2,67,0.00,OVC,,0.05,0.0,WeatherDisplay:10.37,2013-04-19 01:18:00,
2013-04-18 20:23:00,37.9,27.9,30.10,NW,313,11.5,11.5,67,0.00,OVC,,0.05,0.0,WeatherDisplay:10.37,2013-04-19 01:23:00,
2013-04-18 20:28:00,37.8,27.8,30.10,WNW,298,11.5,11.5,67,0.00,OVC,,0.05,0.0,WeatherDisplay:10.37,2013-04-19 01:28:00,
2013-04-18 20:33:00,37.7,27.7,30.10,NW,313,6.9,6.9,67,0.00,OVC,,0.05,0.0,WeatherDisplay:10.37,2013-04-19 01:33:00,
2013-04-18 20:38:00,37.7,27.7,30.10,NW,319,11.5,11.5,67,0.00,OVC,,0.05,0.0,WeatherDisplay:10.37,2013-04-19 01:38:00,
2013-04-18 20:43:00,37.7,27.7,30.10,WNW,295,9.2,9.2,67,0.00,OVC,,0.05,0.0,WeatherDisplay:10.37,2013-04-19 01:43:00,
2013-04-18 20:48:00,37.7,27.7,30.10,NW,305,8.1,8.1,67,0.00,OVC,,0.05,0.0,WeatherDisplay:10.37,2013-04-19 01:48:00,
2013-04-18 20:53:00,37.6,28.0,30.10,WNW,302,11.0,11.0,68,0.00,OVC,,0.05,0.0,WeatherDisplay:10.37,2013-04-19 01:53:00,
2013-04-18 20:58:00,37.6,27.6,30.11,NNW,329,12.7,12.7,67,0.00,OVC,,0.05,0.0,WeatherDisplay:10.37,2013-04-19 01:58:00,
2013-04-18 21:03:00,37.6,28.0,30.11,NW,315,9.2,9.2,68,0.00,BKN,,0.05,0.0,WeatherDisplay:10.37,2013-04-19 02:03:00,
2013-04-18 21:08:00,37.5,27.9,30.11,WNW,293,8.1,8.1,68,0.00,BKN,,0.05,0.0,WeatherDisplay:10.37,2013-04-19 02:08:00,
2013-04-18 21:13:00,37.5,27.9,30.11,WNW,300,10.0,10.0,68,0.00,BKN,,0.05,0.0,WeatherDisplay:10.37,2013-04-19 02:13:00,
2013-04-18 21:18:00,37.5,27.5,30.12,NNW,338,11.0,11.0,67,0.00,BKN,,0.05,0.0,WeatherDisplay:10.37,2013-04-19 02:18:00,
2013-04-18 21:23:00,37.4,27.8,30.12,WNW,301,9.2,9.2,68,0.00,BKN,,0.05,0.0,WeatherDisplay:10.37,2013-04-19 02:23:00,
2013-04-18 21:28:00,37.3,27.7,30.12,NW,315,8.1,8.1,68,0.00,BKN,,0.05,0.0,WeatherDisplay:10.37,2013-04-19 02:28:00,
2013-04-18 21:33:00,37.3,27.3,30.12,NW,309,12.7,12.7,67,0.00,BKN,,0.05,0.0,WeatherDisplay:10.37,2013-04-19 02:33:00,
2013-04-18 21:38:00,37.3,27.0,30.12,NW,309,11.5,11.5,66,0.00,BKN,,0.05,0.0,WeatherDisplay:10.37,2013-04-19 02:38:00,
2013-04-18 21:43:00,37.1,26.8,30.12,NNW,327,9.2,9.2,66,0.00,BKN,,0.05,0.0,WeatherDisplay:10.37,2013-04-19 02:43:00,
2013-04-18 21:48:00,36.9,26.6,30.12,WNW,293,11.5,11.5,66,0.00,BKN,,0.05,0.0,WeatherDisplay:10.37,2013-04-19 02:48:00,
2013-04-18 21:53:00,36.7,26.4,30.13,NW,318,6.0,6.0,66,0.00,BKN,,0.05,0.0,WeatherDisplay:10.37,2013-04-19 02:53:00,
2013-04-18 21:58:00,36.4,26.5,30.13,NW,320,5.8,5.8,67,0.00,BKN,,0.05,0.0,WeatherDisplay:10.37,2013-04-19 02:58:00,
2013-04-18 22:03:00,36.2,26.3,30.13,WNW,282,7.0,7.0,67,0.00,SCT,,0.05,0.0,WeatherDisplay:10.37,2013-04-19 03:03:00,
2013-04-18 22:08:00,36.1,26.6,30.12,NW,317,3.5,4.8,68,0.00,SCT,,0.05,0.0,WeatherDisplay:10.37,2013-04-19 03:08:00,
2013-04-18 22:13:00,36.0,26.5,30.12,WNW,302,4.6,4.6,68,0.00,SCT,,0.05,0.0,WeatherDisplay:10.37,2013-04-19 03:13:00,
2013-04-18 22:18:00,35.7,26.5,30.12,West,280,8.1,8.1,69,0.00,SCT,,0.05,0.0,WeatherDisplay:10.37,2013-04-19 03:18:00,
2013-04-18 22:23:00,35.5,26.7,30.13,WSW,252,6.9,6.9,70,0.00,SCT,,0.05,0.0,WeatherDisplay:10.37,2013-04-19 03:23:00,
2013-04-18 22:28:00,35.2,26.7,30.13,WNW,292,5.8,5.8,71,0.00,SCT,,0.05,0.0,WeatherDisplay:10.37,2013-04-19 03:28:00,
2013-04-18 22:33:00,34.9,26.8,30.13,West,265,6.9,6.9,72,0.00,SCT,,0.05,0.0,WeatherDisplay:10.37,2013-04-19 03:33:00,
2013-04-18 22:38:00,34.7,26.6,30.13,WNW,302,3.5,3.5,72,0.00,SCT,,0.05,0.0,WeatherDisplay:10.37,2013-04-19 03:38:00,
2013-04-18 22:43:00,34.5,26.7,30.12,West,263,5.8,5.8,73,0.00,SCT,,0.05,0.0,WeatherDisplay:10.37,2013-04-19 03:43:00,
2013-04-18 22:48:00,34.3,26.9,30.12,WNW,283,5.0,5.0,74,0.00,SCT,,0.05,0.0,WeatherDisplay:10.37,2013-04-19 03:48:00,
2013-04-18 22:53:00,34.1,26.7,30.12,West,259,6.9,6.9,74,0.00,SCT,,0.05,0.0,WeatherDisplay:10.37,2013-04-19 03:53:00,
2013-04-18 22:58:00,33.9,26.5,30.12,West,269,7.0,7.0,74,0.00,SCT,,0.05,0.0,WeatherDisplay:10.37,2013-04-19 03:58:00,
2013-04-18 23:01:00,33.9,26.8,30.12,WSW,250,4.6,4.6,75,0.00,SCT,,0.05,0.0,WeatherDisplay:10.37,2013-04-19 04:01:00,
2013-04-18 23:06:00,33.7,26.6,30.12,West,279,5.8,5.8,75,0.00,BKN,,0.05,0.0,WeatherDisplay:10.37,2013-04-19 04:06:00,
2013-04-18 23:11:00,33.5,26.7,30.12,WNW,292,4.0,4.0,76,0.00,BKN,,0.05,0.0,WeatherDisplay:10.37,2013-04-19 04:11:00,
2013-04-18 23:16:00,33.4,26.6,30.12,West,263,6.9,6.9,76,0.00,BKN,,0.05,0.0,WeatherDisplay:10.37,2013-04-19 04:16:00,
2013-04-18 23:21:00,33.3,26.5,30.12,West,281,6.9,6.9,76,0.00,BKN,,0.05,0.0,WeatherDisplay:10.37,2013-04-19 04:21:00,
2013-04-18 23:26:00,33.3,26.5,30.12,West,276,10.4,10.4,76,0.00,BKN,,0.05,0.0,WeatherDisplay:10.37,2013-04-19 04:26:00,
2013-04-18 23:31:00,33.3,26.5,30.12,West,262,5.8,5.8,76,0.00,BKN,,0.05,0.0,WeatherDisplay:10.37,2013-04-19 04:31:00,
2013-04-18 23:36:00,33.2,26.8,30.12,WSW,256,6.9,6.9,77,0.00,BKN,,0.05,0.0,WeatherDisplay:10.37,2013-04-19 04:36:00,
2013-04-18 23:41:00,33.0,26.6,30.12,West,274,10.0,10.0,77,0.00,BKN,,0.05,0.0,WeatherDisplay:10.37,2013-04-19 04:41:00,
2013-04-18 23:46:00,32.9,26.5,30.12,WNW,292,8.1,8.1,77,0.00,BKN,,0.05,0.0,WeatherDisplay:10.37,2013-04-19 04:46:00,
2013-04-18 23:51:00,32.8,26.7,30.12,West,281,6.9,6.9,78,0.00,BKN,,0.05,0.0,WeatherDisplay:10.37,2013-04-19 04:51:00,
2013-04-18 23:56:00,32.7,26.6,30.12,WNW,286,8.1,8.1,78,0.00,BKN,,0.05,0.0,WeatherDisplay:10.37,2013-04-19 04:56:00,